Regional Weather Roundup
Issued by NWS

Home | Current Version | Previous Version | Graphics & Text | Print | Product List | Glossary On
Versions: 1 2 3 4 5 6 7 8 9 10 11 12 13 14 15 16 17 18 19 20 21 22 23 24 25 26 27 28 29 30 31 32 33 34 35 36 37 38 39 40 41 42 43 44 45 46 47 48 49 50
000
ASUS44 KMEG 200200
RWRTN
TENNESSEE HOURLY STATE WEATHER ROUNDUP
NATIONAL WEATHER SERVICE MEMPHIS TN
900 PM CDT SAT AUG 19 2017

TNZ002-004-019-021-049-052-054-088>092-200300-
WEST TENNESSEE

CITY           SKY/WX    TMP DP  RH WIND       PRES   REMARKS
MEMPHIS INTL   MOCLDY    87  73  62 CALM      29.98R HX  94
NWS MEMPHIS      N/A     82 N/A N/A MISG        N/A
JACKSON        PTCLDY    76  75  97 CALM      29.97R
DYERSBURG      PTCLDY    78  75  90 CALM      29.98R
$$

TNZ008-025-027-028-033-062-065-066-200300-
NORTH MIDDLE TENNESSEE

CITY           SKY/WX    TMP DP  RH WIND       PRES   REMARKS
NASHVILLE      PTCLDY    81  69  67 S5        29.99R
CLARKSVILLE    CLEAR     75  70  84 CALM      29.97R
SMYRNA         CLEAR     79  71  76 CALM      29.99R
CROSSVILLE     CLEAR     68  65  90 CALM      30.08R
$$

TNZ061-075-076-078-094-096-097-200300-
SOUTH MIDDLE TENNESSEE

CITY           SKY/WX    TMP DP  RH WIND       PRES   REMARKS
$$

TNZ017-018-042-046-047-200300-
NORTHEAST TENNESSEE

CITY           SKY/WX    TMP DP  RH WIND       PRES   REMARKS
TRI CITIES     CLEAR     72  67  84 CALM      30.05R
$$

TNZ012-013-036-069-073-074-200300-
CENTRAL EAST TENNESSEE

CITY           SKY/WX    TMP DP  RH WIND       PRES   REMARKS
KNOXVILLE      CLEAR     77  66  68 CALM      30.01R
OAK RIDGE      MOCLDY    77  69  76 CALM      30.03R
GATLINBURG     CLEAR     73  64  73 CALM      30.03R
$$

TNZ083-085-099-200300-
SOUTHEAST TENNESSEE

CITY           SKY/WX    TMP DP  RH WIND       PRES   REMARKS
CHATTANOOGA    PTCLDY    80  67  64 CALM      30.01R
$$

SKY/WX REPORTED AS FAIR MEANS FEW OR NO CLOUDS BELOW
12 THOUSAND FEET.




USA.gov is the U.S. government's official web portal to all federal, state and local government web resources and services.